EW5390 Weather Reports


Display with metric or nautical units.
time (UTC)temp
F
wind
direction
speed
MPH
gust
MPH
rain 1hr
in
rain 24hr
in
rain mn
in
humidity
%
barometer
mb
20260505205053 81 191 2.0 5.0 0.00 0.00 0.00 43 1010.0
20260505204555 81 182 2.0 6.0 0.00 0.00 0.00 44 1009.9
20260505204053 81 167 2.0 8.0 0.00 0.00 0.00 46 1010.1
20260505203555 81 146 2.0 8.0 0.00 0.00 0.00 45 1010.1
20260505203057 81 166 2.0 6.0 0.00 0.00 0.00 45 1010.1
20260505202554 81 31 1.0 8.0 0.00 0.00 0.00 44 1010.1
20260505202053 81 231 2.0 8.0 0.00 0.00 0.00 45 1010.2
20260505201602 81 135 3.0 10.0 0.00 0.00 0.00 45 1010.3
20260505201056 81 188 2.0 10.0 0.00 0.00 0.00 47 1010.2
20260505200555 81 75 3.0 8.0 0.00 0.00 0.00 46 1010.4
20260505195557 81 59 1.0 4.0 0.00 0.00 0.00 47 1010.3
20260505195053 81 342 1.0 4.0 0.00 0.00 0.00 46 1010.5
20260505194556 81 70 1.0 7.0 0.00 0.00 0.00 45 1010.7
20260505194053 81 155 2.0 7.0 0.00 0.00 0.00 44 1010.5
20260505193554 81 257 2.0 6.0 0.00 0.00 0.00 44 1010.7
20260505193058 81 338 2.0 8.0 0.00 0.00 0.00 45 1010.8
20260505192553 81 245 2.0 8.0 0.00 0.00 0.00 45 1010.9
20260505192053 81 113 1.0 7.0 0.00 0.00 0.00 47 1010.8
20260505191558 81 264 2.0 7.0 0.00 0.00 0.00 47 1011.0
20260505191053 81 345 2.0 7.0 0.00 0.00 0.00 46 1011.0
20260505190553 81 307 2.0 6.0 0.00 0.00 0.00 43 1011.1
20260505190054 81 23 1.0 8.0 0.00 0.00 0.00 47 1011.1
20260505185551 81 0 2.0 8.0 0.00 0.00 0.00 46 1011.2
20260505185054 81 243 2.0 6.0 0.00 0.00 0.00 45 1011.3
20260505184602 81 252 2.0 5.0 0.00 0.00 0.00 45 1011.4
20260505184054 81 240 0.0 3.0 0.00 0.00 0.00 44 1011.2
20260505183553 81 318 1.0 9.0 0.00 0.00 0.00 47 1011.2
20260505183054 81 295 2.0 9.0 0.00 0.00 0.00 46 1011.3
20260505182550 81 107 1.0 5.0 0.00 0.00 0.00 45 1011.4
20260505182056 81 319 1.0 5.0 0.00 0.00 0.00 48 1011.4
20260505181558 81 82 1.0 6.0 0.00 0.00 0.00 46 1011.5
20260505181053 81 6 1.0 6.0 0.00 0.00 0.00 47 1011.5
20260505180552 81 143 2.0 6.0 0.00 0.00 0.00 48 1011.5
20260505180059 81 202 2.0 6.0 0.00 0.00 0.00 49 1011.5
20260505175553 80 273 2.0 6.0 0.00 0.00 0.00 49 1011.6
20260505175058 80 310 1.0 4.0 0.00 0.00 0.00 50 1011.7
20260505174611 81 240 0.0 4.0 0.00 0.00 0.00 48 1011.7
20260505174051 80 266 1.0 6.0 0.00 0.00 0.00 51 1011.7
20260505173553 79 0 1.0 6.0 0.00 0.00 0.00 51 1011.8
20260505173056 79 340 1.0 5.0 0.00 0.00 0.00 50 1011.9
20260505172557 79 233 1.0 6.0 0.00 0.00 0.00 50 1012.0
20260505172051 79 39 1.0 6.0 0.00 0.00 0.00 51 1011.9
20260505171552 79 297 2.0 6.0 0.00 0.00 0.00 50 1012.0
20260505171050 79 266 1.0 5.0 0.00 0.00 0.00 51 1012.0
20260505170550 79 58 1.0 4.0 0.00 0.00 0.00 53 1012.0
20260505170134 79 276 1.0 4.0 0.00 0.00 0.00 51 1012.0
20260505165553 79 163 0.0 3.0 0.00 0.00 0.00 53 1012.1
20260505165053 78 329 1.0 4.0 0.00 0.00 0.00 53 1012.1
20260505164553 78 22 0.0 4.0 0.00 0.00 0.00 54 1012.1
20260505164055 78 0 1.0 4.0 0.00 0.00 0.00 53 1012.2
20260505163552 78 301 1.0 6.0 0.00 0.00 0.00 52 1012.3
20260505163055 78 317 2.0 6.0 0.00 0.00 0.00 53 1012.2
20260505162552 78 320 2.0 4.0 0.00 0.00 0.00 53 1012.2
20260505162050 78 172 1.0 3.0 0.00 0.00 0.00 54 1012.3
20260505161600 78 321 1.0 3.0 0.00 0.00 0.00 53 1012.3
20260505161054 78 58 1.0 4.0 0.00 0.00 0.00 52 1012.4
20260505160557 79 57 1.0 4.0 0.00 0.00 0.00 51 1012.4
20260505153058 78 345 2.0 5.0 0.00 0.00 0.00 54 1012.6
20260505152552 77 295 1.0 4.0 0.00 0.00 0.00 54 1012.7
20260505152052 78 304 1.0 3.0 0.00 0.00 0.00 54 1012.6
20260505151554 78 274 0.0 3.0 0.00 0.00 0.00 54 1012.5
20260505151050 78 333 1.0 3.0 0.00 0.00 0.00 53 1012.5
20260505150557 78 219 1.0 3.0 0.00 0.00 0.00 53 1012.5
20260505140553 73 304 1.0 4.0 0.00 0.00 0.00 60 1012.9
20260505130112 68 268 1.0 4.0 0.00 0.00 0.00 69 1012.8
20260505124608 67 313 0.0 4.0 0.00 0.00 0.00 72 1012.7
20260505124053 66 313 1.0 4.0 0.00 0.00 0.00 73 1012.5
20260505123550 66 0 1.0 3.0 0.00 0.00 0.00 74 1012.5
20260505123116 65 309 0.0 3.0 0.00 0.00 0.00 75 1012.5
20260505122553 65 197 0.0 3.0 0.00 0.00 0.00 76 1012.6
20260505122052 64 310 0.0 2.0 0.00 0.00 0.00 77 1012.5
20260505121555 64 259 0.0 2.0 0.00 0.00 0.00 77 1012.5
20260505121052 63 0 0.0 2.0 0.00 0.00 0.00 78 1012.4
20260505120553 63 290 0.0 3.0 0.00 0.00 0.00 78 1012.4
20260505120057 63 219 0.0 3.0 0.00 0.00 0.00 79 1012.5
20260505115550 62 0 0.0 3.0 0.00 0.00 0.00 79 1012.4
20260505115050 62 189 0.0 2.0 0.00 0.00 0.00 79 1012.4
20260505114612 62 86 0.0 0.0 0.00 0.00 0.00 81 1012.5
20260505114053 61 0 0.0 0.0 0.00 0.00 0.00 81 1012.4
20260505113555 61 0 0.0 0.0 0.00 0.00 0.00 82 1012.4
20260505113058 61 0 0.0 0.0 0.00 0.00 0.00 82 1012.3
20260505112550 61 0 0.0 0.0 0.00 0.00 0.00 82 1012.2
20260505112053 60 0 0.0 0.0 0.00 0.00 0.00 83 1012.3
20260505111607 60 0 0.0 0.0 0.00 0.00 0.00 83 1012.3
20260505111054 60 0 0.0 0.0 0.00 0.00 0.00 83 1012.3
20260505110554 60 0 0.0 0.0 0.00 0.00 0.00 83 1012.3
20260505102053 59 0 0.0 0.0 0.00 0.00 0.00 83 1012.1
20260505101557 59 0 0.0 0.0 0.00 0.00 0.00 83 1012.0
20260505101057 60 0 0.0 0.0 0.00 0.00 0.00 83 1012.0
20260505100553 60 0 0.0 0.0 0.00 0.00 0.00 83 1011.9
20260505100100 60 0 0.0 0.0 0.00 0.00 0.00 83 1011.9
20260505095554 60 0 0.0 0.0 0.00 0.01 0.00 83 1011.9
20260505095056 60 0 0.0 0.0 0.00 0.01 0.00 83 1011.9
20260505094555 60 0 0.0 0.0 0.00 0.01 0.00 82 1011.8
20260505094052 60 0 0.0 0.0 0.00 0.01 0.00 82 1011.8
20260505093557 60 0 0.0 0.0 0.00 0.01 0.00 82 1011.8
20260505093058 60 0 0.0 0.0 0.00 0.01 0.00 82 1011.8
20260505092554 60 0 0.0 0.0 0.00 0.01 0.00 82 1011.8
20260505092054 60 0 0.0 0.0 0.00 0.01 0.00 81 1011.8
20260505091554 61 0 0.0 0.0 0.00 0.01 0.00 81 1011.8
20260505091054 61 0 0.0 0.0 0.00 0.01 0.00 81 1011.7
20260505090554 61 0 0.0 0.0 0.00 0.01 0.00 80 1011.8
20260505090101 61 0 0.0 0.0 0.00 0.01 0.00 81 1011.8
20260505085553 61 0 0.0 0.0 0.00 0.01 0.00 81 1011.8
20260505085053 61 0 0.0 0.0 0.00 0.01 0.00 80 1011.8
20260505084600 61 0 0.0 0.0 0.00 0.01 0.00 80 1011.7
20260505084053 61 0 0.0 0.0 0.00 0.01 0.00 80 1011.7
20260505083554 61 0 0.0 0.0 0.00 0.01 0.00 80 1011.8
20260505083108 61 0 0.0 0.0 0.00 0.01 0.00 80 1011.7
20260505082555 61 0 0.0 0.0 0.00 0.01 0.00 80 1011.8
20260505082054 61 0 0.0 0.0 0.00 0.01 0.00 80 1011.8
20260505081605 61 0 0.0 0.0 0.00 0.01 0.00 79 1011.8
20260505081057 62 0 0.0 0.0 0.00 0.01 0.00 79 1011.8
20260505080556 62 0 0.0 0.0 0.00 0.01 0.00 79 1011.7
20260505080100 62 0 0.0 0.0 0.00 0.01 0.00 80 1011.7
20260505075555 62 0 0.0 0.0 0.00 0.01 0.00 80 1011.8
20260505075053 62 0 0.0 0.0 0.00 0.01 0.00 80 1011.7
20260505074556 62 0 0.0 0.0 0.00 0.01 0.00 80 1011.7
20260505074053 61 0 0.0 0.0 0.00 0.01 0.00 81 1011.6
20260505073559 61 0 0.0 0.0 0.00 0.01 0.00 80 1011.6
20260505073108 61 0 0.0 0.0 0.00 0.01 0.00 81 1011.6
20260505072552 61 0 0.0 0.0 0.00 0.01 0.00 81 1011.7
20260505072053 61 0 0.0 0.0 0.00 0.01 0.00 81 1011.6
20260505071604 61 0 0.0 0.0 0.00 0.01 0.00 81 1011.6
20260505071054 61 0 0.0 0.0 0.00 0.01 0.00 82 1011.7
20260505070555 61 0 0.0 0.0 0.00 0.01 0.00 82 1011.6
20260505070106 61 0 0.0 0.0 0.00 0.01 0.00 82 1011.7
20260505065555 61 0 0.0 0.0 0.00 0.01 0.00 82 1011.6
20260505065057 61 0 0.0 0.0 0.00 0.01 0.00 82 1011.6
20260505064605 61 0 0.0 0.0 0.00 0.01 0.00 82 1011.6
20260505064055 61 0 0.0 0.0 0.00 0.01 0.00 82 1011.5
20260505063553 61 0 0.0 0.0 0.00 0.01 0.00 83 1011.5
20260505063059 61 0 0.0 0.0 0.00 0.01 0.00 83 1011.6
20260505062553 61 0 0.0 0.0 0.00 0.01 0.00 83 1011.6
20260505062054 61 0 0.0 0.0 0.00 0.01 0.00 83 1011.6
20260505061557 60 0 0.0 0.0 0.00 0.01 0.00 83 1011.5
20260505061052 60 0 0.0 0.0 0.00 0.01 0.00 83 1011.6
20260505060553 60 0 0.0 0.0 0.00 0.01 0.00 83 1011.6
20260505055553 61 0 0.0 0.0 0.00 0.01 0.00 82 1011.5
20260505055058 60 0 0.0 0.0 0.00 0.01 0.00 83 1011.6
20260505054601 60 0 0.0 0.0 0.00 0.01 0.00 82 1011.6
20260505054053 61 0 0.0 0.0 0.00 0.01 0.00 82 1011.7
20260505053556 61 0 0.0 0.0 0.00 0.01 0.00 82 1011.6
20260505053113 61 0 0.0 0.0 0.00 0.01 0.00 82 1011.6
20260505052553 61 0 0.0 0.0 0.00 0.01 0.00 82 1011.6
20260505052054 61 0 0.0 0.0 0.00 0.01 0.00 81 1011.6
20260505051602 61 0 0.0 0.0 0.00 0.01 0.00 82 1011.6
20260505051054 61 0 0.0 0.0 0.00 0.01 0.00 81 1011.7
20260505050553 61 0 0.0 0.0 0.00 0.01 0.00 81 1011.8
20260505050103 61 0 0.0 0.0 0.00 0.01 0.00 81 1011.6
20260505041612 61 0 0.0 0.0 0.00 0.01 0.00 79 1011.8
20260505041051 61 0 0.0 0.0 0.00 0.01 0.00 79 1011.8
20260505040551 61 0 0.0 0.0 0.00 0.01 0.00 79 1011.8
20260505040059 61 0 0.0 0.0 0.00 0.01 0.00 79 1011.8
20260505035554 61 0 0.0 0.0 0.00 0.01 0.01 78 1011.8
20260505035054 61 0 0.0 0.0 0.00 0.01 0.01 78 1011.8
20260505034558 61 0 0.0 0.0 0.00 0.01 0.01 78 1011.7
20260505034052 61 0 0.0 0.0 0.00 0.01 0.01 77 1011.7
20260505033552 61 0 0.0 0.0 0.00 0.01 0.01 77 1011.7
20260505033056 61 0 0.0 0.0 0.00 0.01 0.01 76 1011.6
20260505032557 61 0 0.0 0.0 0.00 0.01 0.01 76 1011.6
20260505032051 61 0 0.0 0.0 0.00 0.01 0.01 75 1011.8
20260505031606 61 0 0.0 0.0 0.00 0.01 0.01 75 1011.8
20260505031057 61 0 0.0 0.0 0.00 0.01 0.01 74 1011.7
20260505030551 62 0 0.0 0.0 0.00 0.01 0.01 74 1011.7
20260505030055 62 0 0.0 0.0 0.00 0.01 0.01 73 1011.6
20260505025552 62 0 0.0 0.0 0.00 0.01 0.01 73 1011.5
20260505025054 62 0 0.0 0.0 0.00 0.01 0.01 72 1011.6
20260505024555 62 0 0.0 0.0 0.00 0.01 0.01 72 1011.6
20260505024052 62 0 0.0 0.0 0.00 0.01 0.01 72 1011.6
20260505023552 62 0 0.0 0.0 0.00 0.01 0.01 71 1011.7
20260505023103 62 0 0.0 0.0 0.00 0.01 0.01 71 1011.7
20260505022551 62 0 0.0 0.0 0.00 0.01 0.01 70 1011.7
20260505022051 62 0 0.0 0.0 0.00 0.01 0.01 70 1011.7
20260505021601 62 0 0.0 0.0 0.00 0.01 0.01 69 1011.7
20260505021051 63 0 0.0 0.0 0.00 0.01 0.01 69 1011.7
20260505020552 63 0 0.0 0.0 0.00 0.01 0.01 68 1011.7
20260505020057 63 0 0.0 0.0 0.00 0.01 0.01 67 1011.8
20260505015555 63 0 0.0 0.0 0.00 0.01 0.01 66 1011.8
20260505015052 63 0 0.0 0.0 0.00 0.01 0.01 65 1011.7
20260505014557 63 0 0.0 0.0 0.00 0.01 0.01 64 1011.7
20260505014053 63 0 0.0 0.0 0.00 0.01 0.01 62 1011.6
20260505013552 64 0 0.0 0.0 0.00 0.01 0.01 61 1011.6
20260505013101 64 0 0.0 0.0 0.00 0.01 0.01 60 1011.7
20260505012551 64 0 0.0 0.0 0.00 0.01 0.01 59 1011.6
20260505012051 64 0 0.0 0.0 0.00 0.01 0.01 57 1011.6
20260505011557 64 0 0.0 0.0 0.00 0.01 0.01 55 1011.6
20260505011053 64 0 0.0 0.0 0.00 0.01 0.01 55 1011.4
20260505010552 64 0 0.0 0.0 0.00 0.01 0.01 54 1011.3
20260505010056 65 0 0.0 0.0 0.00 0.01 0.01 54 1011.2
20260505005551 65 0 0.0 0.0 0.00 0.01 0.01 53 1011.2
20260505005052 65 0 0.0 0.0 0.00 0.01 0.01 53 1011.2
20260505004552 65 0 0.0 0.0 0.00 0.01 0.01 52 1011.1
20260505004051 65 0 0.0 0.0 0.00 0.01 0.01 52 1011.1
20260505003551 65 0 0.0 0.0 0.00 0.01 0.01 52 1011.2
20260505003057 66 0 0.0 0.0 0.00 0.01 0.01 52 1011.2
20260505002555 66 0 0.0 0.0 0.00 0.01 0.01 50 1011.2
20260505002056 66 0 0.0 0.0 0.00 0.01 0.01 51 1011.3
20260505001556 66 0 0.0 0.0 0.00 0.01 0.01 51 1011.2
20260505001051 66 0 0.0 0.0 0.00 0.01 0.01 51 1011.3
20260505000551 67 0 0.0 0.0 0.00 0.01 0.01 50 1011.2
20260505000107 67 0 0.0 0.0 0.00 0.01 0.01 49 1011.2
20260504235554 67 0 0.0 0.0 0.00 0.01 0.01 49 1011.1
20260504235052 68 0 0.0 0.0 0.00 0.01 0.01 47 1011.1
20260504234619 68 0 0.0 0.0 0.00 0.01 0.01 47 1011.0
20260504234053 69 0 0.0 0.0 0.00 0.01 0.01 47 1011.0
20260504233553 69 0 0.0 0.0 0.00 0.01 0.01 45 1010.9
20260504233054 69 0 0.0 2.0 0.00 0.01 0.01 45 1010.9
20260504232552 70 165 0.0 2.0 0.00 0.01 0.01 45 1010.9
20260504232051 70 148 1.0 2.0 0.00 0.01 0.01 45 1010.9
20260504231602 70 186 0.0 3.0 0.00 0.01 0.01 43 1010.9
20260504231051 70 186 1.0 3.0 0.00 0.01 0.01 43 1010.9
20260504230553 71 158 0.0 2.0 0.00 0.01 0.01 44 1010.8
20260504230058 71 164 0.0 2.0 0.00 0.01 0.01 43 1010.9
20260504225552 71 134 0.0 3.0 0.00 0.01 0.01 44 1010.8
20260504225051 71 149 1.0 3.0 0.00 0.01 0.01 44 1010.9
20260504224555 72 81 0.0 3.0 0.00 0.01 0.01 42 1010.9
20260504224053 72 165 1.0 3.0 0.00 0.01 0.01 42 1010.9
20260504223552 72 198 0.0 2.0 0.00 0.01 0.01 42 1010.8
20260504223054 72 172 0.0 3.0 0.00 0.01 0.01 42 1010.9
20260504222551 73 156 0.0 3.0 0.00 0.01 0.01 42 1010.7
20260504222052 73 184 0.0 3.0 0.00 0.01 0.01 42 1010.9
20260504221559 73 266 0.0 4.0 0.00 0.01 0.01 43 1010.9
20260504221053 73 244 1.0 4.0 0.00 0.01 0.01 41 1011.0
20260504220551 73 264 1.0 4.0 0.00 0.01 0.01 42 1010.8
20260504220058 73 160 0.0 3.0 0.00 0.01 0.01 41 1010.8
20260504215552 73 160 0.0 4.0 0.00 0.01 0.01 41 1010.8
20260504215051 73 145 1.0 4.0 0.00 0.01 0.01 40 1010.8
20260504214555 73 349 1.0 3.0 0.00 0.01 0.01 42 1010.9
20260504214052 73 338 1.0 3.0 0.00 0.01 0.01 42 1010.8
20260504213552 73 318 1.0 3.0 0.00 0.01 0.01 41 1010.8
20260504213059 74 323 1.0 3.0 0.00 0.01 0.01 42 1010.8
20260504212552 74 302 1.0 4.0 0.00 0.01 0.01 40 1010.8
20260504212052 73 311 1.0 4.0 0.00 0.01 0.01 40 1010.8
20260504211558 73 310 2.0 4.0 0.00 0.01 0.01 39 1010.8
20260504211054 73 297 1.0 5.0 0.00 0.01 0.01 40 1010.8
20260504210553 73 236 2.0 7.0 0.00 0.01 0.01 40 1010.8
20260504210110 73 323 2.0 7.0 0.00 0.01 0.01 37 1010.8
20260504205553 73 320 2.0 8.0 0.00 0.01 0.01 39 1010.9